TimeEDT,TemperatureF,Dew PointF,Humidity,Sea Level PressureIn,VisibilityMPH,Wind Direction,Wind SpeedMPH,Gust SpeedMPH,PrecipitationIn,Events,Conditions,WindDirDegrees,DateUTC
12:15 AM,48.7,48.7,100,30.15,2.0,NNW,6.9,-,N/A,,Overcast,340,2012-10-09 04:15:00
12:35 AM,48.7,48.7,100,30.14,2.0,North,4.6,-,N/A,,Overcast,350,2012-10-09 04:35:00
12:55 AM,48.6,48.6,100,30.13,2.5,North,6.9,-,N/A,,Overcast,350,2012-10-09 04:55:00
1:15 AM,48.6,48.6,100,30.13,3.0,North,6.9,-,N/A,,Overcast,350,2012-10-09 05:15:00
1:55 AM,48.4,48.4,100,30.13,4.0,North,6.9,-,N/A,,Overcast,360,2012-10-09 05:55:00
2:15 AM,48.4,48.4,100,30.13,5.0,North,6.9,-,N/A,,Overcast,360,2012-10-09 06:15:00
2:55 AM,48.4,48.4,100,30.12,5.0,North,6.9,-,N/A,,Overcast,360,2012-10-09 06:55:00
3:35 AM,48.7,48.6,99,30.12,4.0,NNW,5.8,-,N/A,,Overcast,340,2012-10-09 07:35:00
3:55 AM,48.6,48.6,100,30.11,4.0,North,6.9,-,N/A,,Overcast,350,2012-10-09 07:55:00
4:15 AM,48.6,48.6,100,30.11,4.0,North,6.9,-,N/A,,Overcast,350,2012-10-09 08:15:00
4:35 AM,48.6,48.4,99,30.11,4.0,North,5.8,-,N/A,,Overcast,360,2012-10-09 08:35:00
4:55 AM,48.6,48.6,100,30.11,4.0,North,4.6,-,N/A,,Overcast,360,2012-10-09 08:55:00
5:15 AM,48.6,48.6,100,30.12,4.0,North,5.8,-,N/A,,Overcast,360,2012-10-09 09:15:00
5:35 AM,48.6,48.6,100,30.12,7.0,North,6.9,-,N/A,,Overcast,350,2012-10-09 09:35:00
5:55 AM,48.6,48.4,99,30.12,5.0,North,5.8,-,N/A,,Overcast,360,2012-10-09 09:55:00
6:15 AM,48.7,48.4,99,30.13,5.0,North,4.6,-,N/A,,Overcast,360,2012-10-09 10:15:00
6:35 AM,48.7,48.2,98,30.13,5.0,North,8.1,-,N/A,,Overcast,360,2012-10-09 10:35:00
6:55 AM,48.7,48.4,99,30.14,5.0,North,5.8,-,N/A,,Overcast,350,2012-10-09 10:55:00
7:15 AM,48.7,48.4,99,30.14,5.0,North,5.8,-,N/A,,Overcast,360,2012-10-09 11:15:00
7:55 AM,49.1,48.6,98,30.15,3.0,North,4.6,-,N/A,,Overcast,350,2012-10-09 11:55:00
8:15 AM,49.1,48.6,98,30.15,5.0,North,4.6,-,N/A,,Overcast,360,2012-10-09 12:15:00
8:35 AM,49.1,48.6,98,30.16,7.0,North,4.6,-,N/A,,Overcast,350,2012-10-09 12:35:00
8:55 AM,49.5,48.9,98,30.16,5.0,North,5.8,-,N/A,,Overcast,350,2012-10-09 12:55:00
9:15 AM,49.5,48.9,98,30.16,3.0,North,5.8,-,N/A,,Overcast,360,2012-10-09 13:15:00
9:35 AM,49.6,49.1,98,30.17,5.0,North,5.8,-,N/A,,Overcast,360,2012-10-09 13:35:00
9:55 AM,50.0,49.1,97,30.17,7.0,North,4.6,-,N/A,,Overcast,10,2012-10-09 13:55:00
10:15 AM,50.5,49.3,95,30.17,10.0,North,8.1,-,N/A,,Overcast,350,2012-10-09 14:15:00
10:35 AM,50.9,49.3,94,30.17,10.0,NNE,5.8,-,N/A,,Overcast,20,2012-10-09 14:35:00
10:55 AM,51.3,49.3,93,30.16,10.0,North,5.8,-,N/A,,Overcast,10,2012-10-09 14:55:00
11:15 AM,51.8,49.5,92,30.16,10.0,North,5.8,-,N/A,,Overcast,360,2012-10-09 15:15:00
11:35 AM,52.5,49.8,91,30.16,10.0,North,4.6,-,N/A,,Overcast,10,2012-10-09 15:35:00
11:55 AM,52.7,49.8,90,30.16,10.0,North,5.8,-,N/A,,Overcast,350,2012-10-09 15:55:00
12:15 PM,53.2,50.0,89,30.15,10.0,Calm,Calm,-,N/A,,Overcast,0,2012-10-09 16:15:00
12:35 PM,53.6,50.2,88,30.15,10.0,North,3.5,-,N/A,,Overcast,350,2012-10-09 16:35:00
12:55 PM,53.8,50.4,88,30.14,10.0,NW,4.6,-,N/A,,Overcast,320,2012-10-09 16:55:00
1:15 PM,54.3,50.4,86,30.13,10.0,NNW,5.8,-,N/A,,Overcast,330,2012-10-09 17:15:00
1:35 PM,55.0,50.7,85,30.12,10.0,NNE,4.6,-,N/A,,Overcast,30,2012-10-09 17:35:00
1:55 PM,55.9,50.9,83,30.12,10.0,North,5.8,-,N/A,,Overcast,360,2012-10-09 17:55:00
2:15 PM,56.3,51.1,83,30.11,10.0,NNW,3.5,-,N/A,,Overcast,340,2012-10-09 18:15:00
2:35 PM,55.9,51.4,85,30.11,10.0,West,3.5,-,N/A,,Overcast,270,2012-10-09 18:35:00
2:55 PM,56.1,51.8,85,30.10,10.0,NW,4.6,-,N/A,,Overcast,310,2012-10-09 18:55:00
3:15 PM,56.5,52.0,85,30.10,10.0,North,4.6,-,N/A,,Overcast,350,2012-10-09 19:15:00
3:35 PM,56.5,52.0,85,30.10,10.0,NNW,5.8,-,N/A,,Overcast,340,2012-10-09 19:35:00
3:55 PM,56.5,52.0,85,30.09,10.0,NNW,3.5,-,N/A,,Overcast,340,2012-10-09 19:55:00
4:15 PM,56.3,51.4,84,30.10,10.0,Calm,Calm,-,N/A,,Overcast,0,2012-10-09 20:15:00
4:35 PM,56.1,51.4,84,30.10,10.0,North,5.8,-,N/A,,Overcast,360,2012-10-09 20:35:00
4:55 PM,55.9,51.6,85,30.10,10.0,NNE,4.6,-,N/A,,Overcast,20,2012-10-09 20:55:00
5:15 PM,55.9,51.4,85,30.10,10.0,NNW,3.5,-,N/A,,Overcast,340,2012-10-09 21:15:00
5:35 PM,55.8,51.6,86,30.10,10.0,NNW,5.8,-,N/A,,Overcast,340,2012-10-09 21:35:00
5:55 PM,55.6,51.6,87,30.10,10.0,Calm,Calm,-,N/A,,Overcast,0,2012-10-09 21:55:00
6:15 PM,55.6,51.8,87,30.10,10.0,Calm,Calm,-,N/A,,Overcast,0,2012-10-09 22:15:00
6:35 PM,55.4,52.0,88,30.09,10.0,Calm,Calm,-,N/A,,Overcast,0,2012-10-09 22:35:00
6:55 PM,55.4,52.5,90,30.10,10.0,Calm,Calm,-,N/A,,Overcast,0,2012-10-09 22:55:00
7:15 PM,55.4,52.7,91,30.10,10.0,West,3.5,-,N/A,,Overcast,280,2012-10-09 23:15:00
7:35 PM,55.2,52.9,92,30.10,10.0,Calm,Calm,-,N/A,,Overcast,0,2012-10-09 23:35:00
7:55 PM,55.4,53.1,92,30.09,10.0,Calm,Calm,-,N/A,,Overcast,0,2012-10-09 23:55:00
8:15 PM,55.4,53.2,92,30.10,10.0,Calm,Calm,-,N/A,,Overcast,0,2012-10-10 00:15:00
8:35 PM,55.4,53.2,92,30.10,10.0,Calm,Calm,-,N/A,,Overcast,0,2012-10-10 00:35:00
8:55 PM,55.4,53.2,92,30.10,10.0,Calm,Calm,-,N/A,,Overcast,0,2012-10-10 00:55:00
9:15 PM,55.4,53.2,92,30.10,10.0,Calm,Calm,-,N/A,,Overcast,0,2012-10-10 01:15:00
9:35 PM,55.4,53.4,93,30.11,10.0,Calm,Calm,-,N/A,,Overcast,0,2012-10-10 01:35:00
9:55 PM,55.4,53.8,94,30.12,10.0,Calm,Calm,-,N/A,,Overcast,0,2012-10-10 01:55:00
10:15 PM,55.0,53.8,96,30.12,10.0,Calm,Calm,-,N/A,,Overcast,0,2012-10-10 02:15:00
10:35 PM,55.0,53.8,96,30.12,10.0,Calm,Calm,-,N/A,,Overcast,0,2012-10-10 02:35:00
10:55 PM,55.2,53.8,95,30.12,10.0,Calm,Calm,-,N/A,,Overcast,0,2012-10-10 02:55:00
11:15 PM,55.2,53.8,95,30.11,10.0,Calm,Calm,-,N/A,,Overcast,0,2012-10-10 03:15:00
11:35 PM,55.0,54.0,96,30.11,10.0,Calm,Calm,-,N/A,,Overcast,0,2012-10-10 03:35:00
11:55 PM,55.4,54.0,95,30.11,10.0,Calm,Calm,-,N/A,,Overcast,0,2012-10-10 03:55:00